EW2142 Weather Reports


Display with metric or nautical units.
time (UTC)temp
F
wind
direction
speed
MPH
gust
MPH
rain 1hr
in
rain 24hr
in
rain mn
in
humidity
%
barometer
mb
20260503232503 50 294 0.0 1.0 0.02 0.02 0.02 1 1006.1
20260503232003 50 264 0.0 1.0 0.02 0.02 0.02 1 1006.2
20260503231503 51 264 0.0 1.0 0.01 0.01 0.01 1 1006.3
20260503231003 51 0 0.0 0.0 0.01 0.01 0.01 1 1006.3
20260503230503 51 0 0.0 0.0 0.01 0.01 0.01 1 1006.4
20260503230003 51 0 0.0 0.0 0.01 0.01 0.01 1 1006.4
20260503225503 51 103 0.0 1.0 0.00 0.00 0.00 1 1006.4
20260503225024 51 103 0.0 1.0 0.00 0.00 0.00 1 1006.4
20260503224502 51 103 0.0 1.0 0.00 0.00 0.00 1 1006.5
20260503224023 51 0 0.0 0.0 0.00 0.00 0.00 1 1006.4
20260503223503 51 0 0.0 0.0 0.00 0.00 0.00 1 1006.4
20260503223003 51 0 0.0 0.0 0.00 0.00 0.00 1 1006.4
20260503222503 51 113 0.0 1.0 0.00 0.00 0.00 1 1006.4
20260503222003 51 113 0.0 1.0 0.00 0.00 0.00 1 1006.4
20260503221503 51 0 0.0 0.0 0.00 0.00 0.00 1 1006.4
20260503221003 51 0 0.0 0.0 0.00 0.00 0.00 2 1006.4
20260503220503 51 0 0.0 0.0 0.00 0.00 0.00 3 1006.4
20260503220004 51 0 0.0 0.0 0.00 0.00 0.00 4 1006.5
20260503215503 51 0 0.0 0.0 0.00 0.00 0.00 5 1006.5
20260503215003 51 0 0.0 0.0 0.00 0.00 0.00 5 1006.6
20260503214503 51 0 0.0 0.0 0.00 0.00 0.00 5 1006.7
20260503214003 51 0 0.0 0.0 0.00 0.00 0.00 6 1006.7
20260503213503 51 0 0.0 0.0 0.00 0.00 0.00 9 1006.8
20260503213002 51 0 0.0 0.0 0.00 0.00 0.00 9 1006.8
20260503212503 51 0 0.0 0.0 0.00 0.00 0.00 9 1006.8
20260503212003 51 0 0.0 0.0 0.00 0.00 0.00 12 1006.8
20260503211503 51 0 0.0 0.0 0.00 0.00 0.00 12 1006.9
20260503211003 51 0 0.0 0.0 0.00 0.00 0.00 11 1006.9
20260503210503 50 0 0.0 0.0 0.00 0.00 0.00 11 1006.9
20260503210003 50 0 0.0 0.0 0.00 0.00 0.00 15 1007.0
20260503205524 50 0 0.0 0.0 0.00 0.00 0.00 18 1007.0
20260503205003 50 0 0.0 0.0 0.00 0.00 0.00 20 1007.1
20260503204503 50 0 0.0 0.0 0.00 0.00 0.00 20 1007.1
20260503204002 50 0 0.0 0.0 0.00 0.00 0.00 21 1007.2
20260503203503 50 0 0.0 0.0 0.00 0.00 0.00 24 1007.3
20260503203002 50 0 0.0 0.0 0.00 0.00 0.00 26 1007.4
20260503202502 50 0 0.0 0.0 0.00 0.00 0.00 32 1007.3
20260503202003 50 0 0.0 0.0 0.00 0.00 0.00 34 1007.4
20260503201503 50 0 0.0 0.0 0.00 0.00 0.00 37 1007.4
20260503201003 50 0 0.0 0.0 0.00 0.00 0.00 42 1007.4
20260503200503 51 0 0.0 0.0 0.00 0.00 0.00 43 1007.4
20260503200003 51 0 0.0 0.0 0.00 0.00 0.00 45 1007.4
20260503195503 51 0 0.0 0.0 0.00 0.00 0.00 45 1007.4
20260503195003 51 0 0.0 0.0 0.00 0.00 0.00 46 1007.5
20260503194503 52 0 0.0 0.0 0.00 0.00 0.00 46 1007.5
20260503194002 52 0 0.0 0.0 0.00 0.00 0.00 49 1007.6
20260503193503 52 0 0.0 0.0 0.00 0.00 0.00 51 1007.6
20260503193003 52 0 0.0 0.0 0.00 0.00 0.00 53 1007.6
20260503192502 52 0 0.0 0.0 0.00 0.00 0.00 55 1007.6
20260503192024 53 0 0.0 0.0 0.00 0.00 0.00 56 1007.6
20260503191503 53 0 0.0 0.0 0.00 0.00 0.00 57 1007.6
20260503191003 53 0 0.0 0.0 0.00 0.00 0.00 58 1007.6
20260503190524 53 0 0.0 0.0 0.00 0.00 0.00 58 1007.6
20260503190003 53 0 0.0 0.0 0.00 0.00 0.00 59 1007.6
20260503185524 54 326 0.0 1.0 0.00 0.00 0.00 60 1007.6
20260503185003 54 328 0.0 1.0 0.00 0.00 0.00 60 1007.6
20260503184503 54 322 0.0 1.0 0.00 0.00 0.00 61 1007.6
20260503184003 54 313 0.0 1.0 0.00 0.00 0.00 61 1007.6
20260503183502 54 0 0.0 0.0 0.00 0.00 0.00 61 1007.6
20260503183002 54 225 0.0 1.0 0.00 0.00 0.00 62 1007.6
20260503182503 54 268 0.0 2.0 0.00 0.00 0.00 62 1007.7
20260503182003 54 268 0.0 2.0 0.00 0.00 0.00 62 1007.7
20260503181504 54 256 0.0 1.0 0.00 0.00 0.00 63 1007.7
20260503181003 54 304 0.0 1.0 0.00 0.00 0.00 63 1007.7
20260503180503 54 4 0.0 1.0 0.00 0.00 0.00 63 1007.7
20260503180003 54 60 0.0 3.0 0.00 0.00 0.00 63 1007.7
20260503175503 54 114 0.0 3.0 0.00 0.00 0.00 64 1007.7
20260503175003 54 90 0.0 3.0 0.00 0.00 0.00 64 1007.7
20260503174503 55 348 0.0 3.0 0.00 0.00 0.00 64 1007.7
20260503174003 55 329 0.0 2.0 0.00 0.00 0.00 64 1007.7
20260503173503 55 345 0.0 2.0 0.00 0.00 0.00 64 1007.8
20260503173002 55 163 0.0 1.0 0.00 0.00 0.00 64 1007.8
20260503172524 55 205 0.0 1.0 0.00 0.00 0.00 64 1007.8
20260503172003 55 286 0.0 3.0 0.00 0.00 0.00 64 1007.9
20260503171502 56 289 0.0 3.0 0.00 0.00 0.00 64 1007.9
20260503171003 56 325 0.0 2.0 0.00 0.00 0.00 65 1008.0
20260503170503 56 350 0.0 2.0 0.00 0.00 0.00 65 1008.0
20260503151003 58 294 0.0 2.0 0.00 0.00 0.00 66 1008.6
20260503150524 58 270 0.0 3.0 0.00 0.00 0.00 66 1008.7
20260503131003 55 297 0.0 1.0 0.00 0.00 0.00 52 1009.4
20260503130524 54 299 0.0 1.0 0.00 0.00 0.00 50 1009.3
20260503110503 50 258 0.0 2.0 0.00 0.00 0.00 1 1009.8
20260503090503 48 150 0.0 1.0 0.00 0.00 0.00 1 1009.6
20260503081503 49 293 0.0 3.0 0.00 0.00 0.00 1 1009.7
20260503081003 49 189 0.0 3.0 0.00 0.00 0.00 1 1009.6
20260503080503 49 312 0.0 3.0 0.00 0.00 0.00 1 1009.5
20260503072503 50 0 0.0 0.0 0.00 0.00 0.00 1 1009.1
20260503072003 50 297 0.0 1.0 0.00 0.00 0.00 1 1009.1
20260503071502 50 297 0.0 1.0 0.00 0.00 0.00 1 1009.0
20260503071003 50 141 0.0 1.0 0.00 0.00 0.00 1 1008.9
20260503070503 50 148 0.0 1.0 0.00 0.00 0.00 1 1008.9
20260503055024 50 0 0.0 1.0 0.00 0.00 0.00 1 1008.6
20260503054503 50 0 0.0 1.0 0.00 0.00 0.00 1 1008.7
20260503054003 50 286 0.0 1.0 0.00 0.00 0.00 1 1008.6
20260503053503 50 316 0.0 1.0 0.00 0.00 0.00 1 1008.6
20260503053003 50 322 0.0 1.0 0.00 0.00 0.00 1 1008.5
20260503052503 50 143 0.0 1.0 0.00 0.00 0.00 1 1008.6
20260503052002 50 149 0.0 1.0 0.00 0.00 0.00 1 1008.6
20260503051503 50 310 0.0 2.0 0.00 0.00 0.00 1 1008.6
20260503051003 50 311 0.0 2.0 0.00 0.00 0.00 1 1008.6
20260503050503 50 315 0.0 2.0 0.00 0.00 0.00 1 1008.5
20260503050003 50 314 0.0 2.0 0.00 0.00 0.00 1 1008.5
20260503045503 50 237 0.0 1.0 0.00 0.00 0.00 1 1008.4
20260503045024 50 191 0.0 1.0 0.00 0.00 0.00 1 1008.5
20260503044503 50 308 0.0 1.0 0.00 0.00 0.00 1 1008.4
20260503044003 50 310 0.0 2.0 0.00 0.00 0.00 1 1008.5
20260503043503 50 313 0.0 2.0 0.00 0.00 0.00 1 1008.5
20260503043003 50 313 0.0 2.0 0.00 0.00 0.00 1 1008.5
20260503042503 50 280 0.0 1.0 0.00 0.00 0.00 1 1008.5
20260503042002 50 151 0.0 1.0 0.00 0.00 0.00 1 1008.5
20260503041523 50 262 0.0 2.0 0.00 0.00 0.00 1 1008.4
20260503041003 51 290 0.0 2.0 0.00 0.00 0.00 3 1008.4
20260503040503 51 162 0.0 1.0 0.00 0.00 0.00 6 1008.5
20260503040003 51 0 0.0 0.0 0.00 0.00 0.00 6 1008.5
20260503035503 51 317 0.0 2.0 0.00 0.00 0.00 6 1008.5
20260503035024 51 295 0.0 2.0 0.00 0.00 0.00 8 1008.5
20260503034503 51 187 0.0 2.0 0.00 0.00 0.00 9 1008.5
20260503034003 51 153 0.0 3.0 0.00 0.00 0.00 10 1008.5
20260503033503 51 156 0.0 3.0 0.00 0.00 0.00 11 1008.5
20260503033003 51 152 0.0 2.0 0.00 0.00 0.00 12 1008.5
20260503032503 52 160 0.0 2.0 0.00 0.00 0.00 11 1008.5
20260503032024 52 183 0.0 1.0 0.00 0.00 0.00 13 1008.4
20260503031502 52 286 0.0 1.0 0.00 0.00 0.00 14 1008.4
20260503031024 52 310 0.0 1.0 0.00 0.00 0.00 16 1008.4
20260503030503 52 274 0.0 2.0 0.00 0.00 0.00 20 1008.5
20260503030003 52 283 0.0 3.0 0.00 0.00 0.00 24 1008.5
20260503025503 52 314 0.0 3.0 0.00 0.00 0.00 27 1008.5
20260503025003 53 131 0.0 2.0 0.00 0.00 0.00 30 1008.5
20260503024524 53 319 0.0 1.0 0.00 0.00 0.00 34 1008.6
20260503024003 53 339 0.0 1.0 0.00 0.00 0.00 35 1008.6
20260503023503 53 163 0.0 1.0 0.00 0.00 0.00 36 1008.6
20260503023003 53 298 0.0 2.0 0.00 0.00 0.00 38 1008.6
20260503022502 53 304 0.0 2.0 0.00 0.00 0.00 39 1008.5
20260503022023 53 274 0.0 1.0 0.00 0.00 0.00 40 1008.5
20260503021503 53 281 0.0 2.0 0.00 0.00 0.00 40 1008.4
20260503021003 53 253 0.0 1.0 0.00 0.00 0.00 41 1008.4
20260503020502 54 245 0.0 1.0 0.00 0.00 0.00 43 1008.4
20260503020003 54 0 0.0 0.0 0.00 0.00 0.00 43 1008.4
20260503015503 54 312 0.0 1.0 0.00 0.00 0.00 44 1008.5
20260503015003 54 312 0.0 1.0 0.00 0.00 0.00 44 1008.5
20260503014503 54 0 0.0 0.0 0.00 0.00 0.00 44 1008.4
20260503014003 54 0 0.0 0.0 0.00 0.00 0.00 44 1008.4
20260503013503 54 0 0.0 0.0 0.00 0.00 0.00 44 1008.5
20260503013003 54 0 0.0 0.0 0.00 0.00 0.00 44 1008.5
20260503012503 54 0 0.0 0.0 0.00 0.00 0.00 44 1008.5
20260503012023 54 0 0.0 0.0 0.00 0.00 0.00 45 1008.6
20260503011502 54 0 0.0 0.0 0.00 0.00 0.00 46 1008.6
20260503011003 54 219 0.0 1.0 0.00 0.00 0.00 45 1008.6
20260503010503 54 219 0.0 1.0 0.00 0.00 0.00 45 1008.6
20260503010024 54 219 0.0 1.0 0.00 0.00 0.00 44 1008.6
20260503005524 54 236 0.0 1.0 0.00 0.00 0.00 45 1008.6
20260503005003 54 236 0.0 1.0 0.00 0.00 0.00 46 1008.7
20260503004503 54 0 0.0 0.0 0.00 0.00 0.00 47 1008.7
20260503004003 54 0 0.0 0.0 0.00 0.00 0.00 48 1008.7
20260503003503 54 0 0.0 0.0 0.00 0.00 0.00 48 1008.7
20260503003024 54 237 0.0 1.0 0.00 0.00 0.00 49 1008.8
20260503002503 54 237 0.0 1.0 0.00 0.00 0.00 51 1008.8
20260503002002 54 0 0.0 0.0 0.00 0.00 0.00 53 1008.9
20260503001524 54 0 0.0 0.0 0.00 0.00 0.00 54 1008.9
20260503001003 54 0 0.0 0.0 0.00 0.00 0.00 56 1008.9
20260503000503 54 0 0.0 0.0 0.00 0.00 0.00 58 1008.9
20260503000003 54 0 0.0 0.0 0.00 0.00 0.00 59 1008.9
20260502235503 54 0 0.0 0.0 0.00 0.00 0.00 60 1008.8
20260502235003 54 0 0.0 0.0 0.00 0.00 0.00 61 1008.8
20260502234503 54 0 0.0 0.0 0.00 0.00 0.00 62 1008.9
20260502234024 54 0 0.0 0.0 0.00 0.00 0.00 62 1009.0
20260502233503 54 0 0.0 0.0 0.00 0.00 0.00 62 1009.1
20260502233024 54 0 0.0 0.0 0.00 0.00 0.00 63 1009.0